User: anonymous   Login
Location: Unspecified
(0.0000°N, 0.0000°E)
Time: 07:34:11
(UTC+00:00)
Language:

Diademe D-1C - Orbit

View from above orbital plane
View from above orbital plane
View from above satellite
View from above satellite

Ground track
Ground track

The orbit data is extracted from the following two-line orbital elements,

1  2674U 67011A   19083.11899736  .00000364  00000-0  73304-4 0  9993
2  2674  39.9248  15.8319 0265202  62.1899 300.5491 14.54796996703298
Epoch (UTC): 24 March 2019 02:51:21
Eccentricity: 0.0265202
inclination: 39.9248°
perigee height: 522 km
apogee height: 898 km
right ascension of ascending node: 15.8319°
argument of perigee: 62.1899°
revolutions per day: 14.54796996
mean anomaly at epoch: 300.5491°
orbit number at epoch: 70329

The dashed part of the orbit path shows where the satellite is in the earth's shadow,  

DLR